Location: Beuvrequen
(50.8014°N, 1.6652°E)
Time: 22:09:48
(UTC+00:00)

CZ-4 R/B - Pass Details

Date: 16 October 2021
Orbit: 531 x 595 km, 97.8° (Epoch: 04 December)

Event Time Altitude Azimuth Distance (km) Brightness Sun altitude
Rises 18:03:55 0° 150° (SSE) 2,712 4.6 -11.1°
Reaches altitude 10° 18:06:03 10° 145° (SE) 1,833 3.7 -11.4°
Maximum altitude 18:09:53 50° 70° (ENE) 727 1.5 -12.0°
Drops below altitude 10° 18:13:50 10° 355° (N) 1,886 4.1 -12.6°
Sets 18:16:04 0° 351° (N) 2,800 5.1 -13.0°
